Regional Weather Roundup
Issued by NWS

Home | Current Version | Previous Version | Text Only | Print | Product List | Glossary On
Versions: 1 2 3 4 5 6 7 8 9 10 11 12 13 14 15 16 17 18 19 20 21 22 23 24 25 26 27 28 29 30 31 32 33 34 35 36 37 38 39 40 41 42 43 44 45 46 47 48 49 50
000
ASUS45 KTFX 240504
RWRMT
MONTANA HOURLY WEATHER ROUNDUP
NATIONAL WEATHER SERVICE GREAT FALLS MT
1104 PM MDT TUE SEP 23 2014

NOTE: "FAIR" INDICATES FEW OR NO CLOUDS BELOW 12000 FEET WITH NO
SIGNIFICANT WEATHER AND/OR OBSTRUCTIONS TO VISIBILITY.

* THESE STATIONS ARE NOT UNDER NWS QUALITY CONTROL. THEY DO NOT
   REPORT WEATHER SUCH AS PRECIPITATION OR FOG.

MTZ001>007-043-240600-
WEST OF THE DIVIDE
CITY           SKY/WX    TMP DP  RH WIND       PRES   REMARKS
KALISPELL      CLOUDY    61  54  78 NW5       29.93F
MISSOULA       CLOUDY    66  50  56 E5        29.96R
BUTTE          MOCLDY    55  45  69 CALM      30.14R
MULLAN PASS    CLOUDY    57  43  60 CALM      30.08S
* ESSEX        N/A       59  50  72 NW1        N/A
* LINCOLN      N/A       57  46  67 SW1G6      N/A
* POLSON       N/A       65  48  54 SW1        N/A
* RONAN APT    CLOUDY    66  52  61 N/A        N/A
* SEELEY LAKE  N/A       56  45  67 N2         N/A
* THOMP F APT  CLOUDY    56  46  69 N3         N/A
$$

MTZ008-052>055-240600-
SOUTHWEST MONTANA
CITY           SKY/WX    TMP DP  RH WIND       PRES   REMARKS
BOZEMAN        PTCLDY    59  52  78 SE5       30.09R
DILLON         CLOUDY    57  52  83 SE6       30.12S
W YELLOWSTONE  CLEAR     48  45  89 CALM      30.27R
* THREE FORKS  PTCLDY    59 -51 N/A N/A        N/A
* BOULDER HILL N/A       60  42  52 S5         N/A
* MONIDA PASS  N/A       50  47  89 E5         N/A
* RAYNOLDS PAS N/A       54  39  57 S6G11      N/A
* WHITEHALL    N/A       65  50  58 W3         N/A
* WISE RIVER   N/A       54  40  59 W4         N/A
$$

MTZ009>010-012-014-046-048-049-054-240600-
EAST SLOPES AND CENTRAL MONTANA
CITY           SKY/WX    TMP DP  RH WIND       PRES   REMARKS
CUT BANK       CLOUDY    61  52  72 SW5       29.98R
GREAT FALLS    CLOUDY    66  45  47 S12       29.98R
HELENA         PTCLDY    61  54  78 VRB3      30.03F
MALMSTROM AFB  CLOUDY    63  48  58 S7        30.00R
* CONRAD       MOCLDY    54  54 100 S5         N/A
* EAST GLACIER N/A       56  46  69 S1         N/A
* MONARCH      N/A       56  43  62 S11        N/A
* PENDROY      N/A       55  51  86 SW4        N/A
* ROGERS PASS  N/A       56  44  64 NW4        N/A
* SAINT MARY   N/A       53  46  77 S3         N/A
* SWEET GRASS  N/A       60  49  67 S11        N/A
$$

MTZ011-013-016-021-035-040-045-047-050-051-240600-
NORTH CENTRAL MONTANA
CITY           SKY/WX    TMP DP  RH WIND       PRES   REMARKS
HAVRE          PTCLDY    57  48  72 CALM      29.93S
LEWISTOWN      MOCLDY    61  48  62 SE6       30.04S
* CHESTER      N/A       55  44  67 N/A        N/A
* DENTON       N/A       61  48  62 W2G7       N/A
* GEYSER       N/A       59  45  60 E4         N/A
* JUDITH GAP   N/A       57  49  75 SW7        N/A
* LOMA         N/A       62  52  70 S2         N/A
$$

MTZ017>020-022>027-061-062-240600-
NORTHEAST MONTANA
CITY           SKY/WX    TMP DP  RH WIND       PRES   REMARKS
GLASGOW        CLEAR     63  50  63 W5        29.92R
GLENDIVE       CLEAR     59  48  67 NW9       29.94R
JORDAN         CLEAR     55  52  90 NW8       29.96R
SIDNEY         CLEAR    N/A N/A N/A CALM      29.89S
WOLF POINT     CLEAR     61  52  72 SW7       29.90R
* BEAVER HILL  N/A       66  48  52 SW4        N/A
* CIRCLE       N/A       60  49  67 N/A        N/A
* LINDSAY DVD  N/A       65  47  52 W8         N/A
* NAVAJO       N/A       66  49  54 W16        N/A
* SACO         N/A       60  50  70 SW4        N/A
$$

MTZ028>042-056>058-240600-
SOUTHCENTRAL AND SOUTHEAST MONTANA
CITY           SKY/WX    TMP DP  RH WIND       PRES   REMARKS
BAKER          CLEAR     57  48  72 CALM      29.98R
BILLINGS       MOCLDY    70  46  42 N7        30.04R
LIVINGSTON     MOCLDY    61  48  62 CALM      30.10R
MILES CITY     CLEAR     61  45  56 W7        29.96R
* LAUREL APT   PTCLDY    70  46  42 SE5        N/A
* ROUNDUP APT  PTCLDY    63  48  58 N/A        N/A
* ALZADA       N/A       61  47  60 W2         N/A
* HYSHAM       N/A       68  44  42 NE1        N/A
* LAME DEER    N/A       70  45  41 N/A        N/A
* REED POINT   N/A       62  46  56 N/A        N/A
* ROSCOE HILL  N/A       66  37  34 S4         N/A
$$

REGIONAL REPORTS...DAKOTAS
CITY           SKY/WX    TMP DP  RH WIND       PRES   REMARKS
WILLISTON      CLEAR     59  48  67 CALM      29.87R
DICKINSON      CLEAR     59  55  87 S13       29.91R
BEACH          N/A       50  48  93 S3        29.95R
CROSBY         CLEAR     61  61 100 S12       29.85R
TIOGA          CLEAR     57  57 100 SE5       29.91R
WATFORD CITY   CLEAR     59  55  87 CALM      29.87R
BISMARCK       CLOUDY    59  57  93 S8        29.96R
GRAND FORKS    CLEAR     57  52  83 SE6       30.01S
FARGO          CLOUDY    61  55  81 S16G22    30.02S
RAPID CITY     CLEAR     63  50  63 NW9       30.00R
$$

REGIONAL REPORTS...WYOMING/IDAHO/WASHINGTON
CITY           SKY/WX    TMP DP  RH WIND       PRES   REMARKS
GILLETTE       CLEAR     52  43  72 S7        30.09R
SHERIDAN       CLEAR     55  46  72 CALM      30.07S
CODY           CLEAR     61  43  52 SE5       30.15R
YELLOWSTONE LA CLEAR     43  39  86 CALM      30.37R
SALMON         CLOUDY    59  52  78 CALM      30.03S
MULLAN PASS    CLOUDY    57  43  60 CALM      30.08S
SAND POINT     CLOUDY    59  59 100 CALM      29.92R
SPOKANE        CLOUDY    64  55  73 NE6       29.90F

$$




USA.gov is the U.S. government's official web portal to all federal, state and local government web resources and services.